Evansville, IN

7:02 PM CST on December 14, 2019 (GMT -0600)
Evansville Regional

Weather History for KEVV - October, 2019

Change the Weather History Date:

Saturday, October 19, 2019

  Actual Average Record
Temperature  
Mean Temperature 56 °F 57 °F  
Max Temperature 73 °F 69 °F 88 °F (2005)
Min Temperature 39 °F 45 °F 26 °F (1972)
Degree Days  
Heating Degree Days 8 9  
Month to date heating degree days 124 129  
Since 1 July heating degree days 124 176  
Cooling Degree Days 0 1  
Month to date cooling degree days 49 26  
Year to date cooling degree days 1640 1392  
Growing Degree Days 6 (Base 50)    
Moisture  
Dew Point 44 °F    
Average Humidity 71    
Maximum Humidity 93    
Minimum Humidity 35    
Precipitation  
Precipitation 0.00 in 0.11 in 1.56 in (1905)
Month to date precipitation 1.04 1.94  
Year to date precipitation 47.12 35.91  
Snow  
Snow 0.00 in 0.10 in 0.90 in (1989)
Month to date snowfall 0.0 0.1  
Since 1 July snowfall 0.0 0.1  
Since 1 September snowfall 0.0 0.1  
Snow Depth 0.00 in    
Sea Level Pressure  
Sea Level Pressure 29.86 in    
Wind  
Wind Speed 3 mph ()    
Max Wind Speed 13 mph    
Max Gust Speed 16 mph    
Visibility 9.9 miles    
Events      
T = Trace of Precipitation, MM = Missing Value Source: Averaged Metar Reports

Daily Weather History Graph

Daily Weather History Graph

Search for Another Location

Airport or City:

Astronomy

Oct. 19, 2019 Rise Set
Actual Time 7:02 AM CDT 6:07 PM CDT
Civil Twilight 6:35 AM CDT 6:33 PM CDT
Nautical Twilight 6:05 AM CDT 7:04 PM CDT
Astronomical Twilight 5:34 AM CDT 7:34 PM CDT
Moon 10:19 PM CDT (10/19) 12:30 PM CDT (10/19)
Length of Visible Light 11h 58m
Length of Day
11h 04m
Waning Gibbous, 69% of the Moon is Illuminated
Oct 19
Waning Gibbous
Oct 21
Last Quarter
Oct 27
New
Nov 4
First Quarter
Nov 12
Full

Hourly Weather History & Observations

Time (CDT) Temp. Windchill Dew Point Humidity Pressure Visibility Wind Dir Wind Speed Gust Speed Precip Events Conditions
12:54 AM 45.0 °F 43.5 °F 39.9 °F 82% 29.91 in 10.0 mi NE 3.5 mph - N/A   Clear
1:54 AM 45.0 °F 42.6 °F 39.9 °F 82% 29.91 in 10.0 mi NNE 4.6 mph - N/A   Clear
2:54 AM 41.0 °F 39.0 °F 37.9 °F 89% 29.92 in 10.0 mi NNE 3.5 mph - N/A   Clear
3:54 AM 42.1 °F - 39.0 °F 89% 29.91 in 10.0 mi Calm Calm - N/A   Clear
4:54 AM 41.0 °F - 37.9 °F 89% 29.92 in 10.0 mi Calm Calm - N/A   Clear
5:54 AM 39.9 °F - 37.9 °F 93% 29.92 in 9.0 mi Calm Calm - N/A   Clear
6:54 AM 41.0 °F - 37.9 °F 89% 29.92 in 10.0 mi Calm Calm - N/A   Clear
7:54 AM 39.9 °F - 37.9 °F 93% 29.92 in 8.0 mi Calm Calm - N/A   Clear
8:54 AM 46.9 °F - 42.1 °F 83% 29.92 in 10.0 mi Calm Calm - N/A   Clear
9:54 AM 57.0 °F - 44.1 °F 62% 29.92 in 10.0 mi ESE 5.8 mph - N/A   Clear
10:54 AM 63.0 °F - 44.1 °F 50% 29.91 in 10.0 mi South 6.9 mph - N/A   Clear
11:54 AM 66.9 °F - 44.1 °F 44% 29.88 in 10.0 mi SSW 11.5 mph - N/A   Clear
12:54 PM 69.1 °F - 45.0 °F 42% 29.84 in 10.0 mi SSE 5.8 mph - N/A   Scattered Clouds
3:54 PM 73.0 °F - 44.1 °F 35% 29.77 in 10.0 mi SSE 6.9 mph - N/A   Scattered Clouds
4:54 PM 72.0 °F - 46.0 °F 40% 29.75 in 10.0 mi South 6.9 mph - N/A   Clear
5:54 PM 69.1 °F - 50.0 °F 51% 29.75 in 10.0 mi South 5.8 mph - N/A   Clear
6:54 PM 64.9 °F - 50.0 °F 58% 29.77 in 10.0 mi WSW 3.5 mph - N/A   Clear
7:54 PM 60.1 °F - 50.0 °F 69% 29.78 in 10.0 mi Calm Calm - N/A   Overcast
8:54 PM 61.0 °F - 52.0 °F 72% 29.79 in 10.0 mi South 4.6 mph - N/A   Partly Cloudy
9:54 PM 60.1 °F - 53.1 °F 78% 29.81 in 10.0 mi Calm Calm - N/A   Partly Cloudy
10:54 PM 57.0 °F - 52.0 °F 83% 29.82 in 10.0 mi Calm Calm - N/A   Clear
11:54 PM 57.9 °F - 53.1 °F 84% 29.81 in 10.0 mi Calm Calm - N/A   Mostly Cloudy